Home   Weather   Gatineau   Past weeks

Flag for Canada Past Weather in Gatineau, Quebec, Canada — Yesterday and Last 2 Weeks

Now
37 °F

Light rain. More clouds than sun.


Feels Like: 30 °F
Forecast: 35 / 42 °F
Wind: 10 mph from East

Location: Ottawa Int'L. Ont.

Current Time: Apr 30, 2017 at 3:07:44 pm

Latest Report: Apr 30, 2017 at 2:00 pm


Visibility: 15 mi

Pressure: 30.29 "Hg

Humidity: 75%

Dew Point: 30 °F

Location of GatineauLocation

Past Weather in Gatineau — Graph

°F

Gatineau Temperature Yesterday

Maximum temperature yesterday: 63 °F (at 1:00 pm)
Minimum temperature yesterday: 41 °F (at 11:00 pm)
Average temperature yesterday: 54 °F

High & Low Weather Summary for the Past Weeks

 TemperatureHumidityPressure
High79 °F (Apr 27, 3:00 pm)100% (Apr 15, 6:00 pm)30.50 "Hg (Apr 15, 6:00 pm)
Low27 °F (Apr 18, 5:00 am)30% (Apr 18, 3:00 pm)29.60 "Hg (Apr 16, 4:00 pm)
Average50 °F74%30.00 "Hg
* Reported Apr 15 1:00 pm — Apr 30 1:00 pm, Gatineau, Weather by CustomWeather, © 2017

Note: Actual official high and low records may vary slightly from our data, if they occured in-between our weather recording intervals... More about our weather records

Advertising

Gatineau Weather History for the Previous 24 Hours

Scroll right to see more
 ConditionsComfort  
Time TempWeatherWind HumidityBarometerVisibility
1:00 pm
Sun, Apr 30
37 °FLight rain. Mostly cloudy.10 mph75%30.30 "Hg15 mi
12:00 pm37 °FLight rain. Overcast.12 mph70%30.34 "Hg15 mi
11:00 am37 °FLight rain. Overcast.10 mph70%30.36 "Hg15 mi
10:00 am37 °FLight rain. Mostly cloudy.9 mph60%30.39 "Hg15 mi
9:00 am37 °FLight rain. Partly sunny.10 mph60%30.39 "Hg15 mi
8:00 am37 °FPartly sunny.9 mph60%30.38 "Hg15 mi
7:00 am37 °FPartly sunny.12 mph60%30.35 "Hg15 mi
6:00 am37 °FPartly sunny.9 mph56%30.36 "Hg15 mi
5:00 am37 °FPartly cloudy.9 mph56%30.35 "Hg15 mi
4:00 am37 °FPassing clouds.10 mph56%30.34 "Hg15 mi
3:00 am39 °FPassing clouds.10 mph52%30.32 "Hg15 mi
2:00 am39 °FClear.12 mph52%30.33 "Hg15 mi
1:00 am39 °FClear.13 mph52%30.34 "Hg15 mi
12:00 am41 °FClear.10 mph49%30.30 "Hg15 mi
11:00 pm
Sat, Apr 29
41 °FClear.12 mph49%30.28 "Hg15 mi
10:00 pm43 °FClear.14 mph46%30.27 "Hg15 mi
9:00 pm43 °FPassing clouds.15 mph46%30.24 "Hg15 mi
8:00 pm46 °FPassing clouds.21 mph43%30.20 "Hg15 mi
7:00 pm52 °FPassing clouds.22 mph38%30.14 "Hg15 mi
6:00 pm57 °FPassing clouds.17 mph36%30.10 "Hg15 mi
5:00 pm57 °FPassing clouds.25 mph33%30.06 "Hg15 mi
4:00 pm59 °FPassing clouds.20 mph34%30.04 "Hg15 mi
3:00 pm61 °FPassing clouds.25 mph36%30.00 "Hg15 mi
Weather by CustomWeather, © 2017

See weather overviewHow to use our weather pages